Wind_Speed
22 22 21 20 19 19 18 16 15 14 14 13 13 12 12 12 11 11 11 12 12 13 13 14 15 16 16 16 16 15 15 14 14 14 14 13 13 13 13 12 12 11 10 9
23 23 23 22 21 20 19 18 16 15 14 15 14 13 13 13 12 11 11 12 12 12 13 13 15 16 16 16 16 15 15 15 15 15 14 14 13 12 12 12 12 11 11 10
24 23 23 23 21 20 19 18 18 16 14 16 15 14 13 13 12 12 12 12 13 13 13 13 14 15 16 16 16 15 15 15 16 15 14 14 13 13 13 13 12 12 12 11
25 25 25 21 21 21 20 19 18 16 15 15 15 15 14 13 13 12 12 12 12 13 14 14 14 15 16 17 16 16 15 16 17 16 15 14 14 14 13 13 13 13 13 13
26 26 24 22 21 20 20 19 18 17 16 15 15 15 14 14 13 12 11 12 13 14 14 14 15 15 15 17 17 17 16 16 17 17 16 15 14 14 14 14 14 14 13 13
28 27 25 22 22 21 21 20 19 18 17 16 15 14 14 14 13 12 12 12 13 13 14 14 14 15 15 15 17 17 17 18 18 18 17 17 17 16 15 16 15 15 14 14
29 28 26 23 22 22 21 19 19 18 17 16 15 15 14 14 14 14 13 13 14 14 14 15 15 15 15 16 16 17 18 18 18 18 17 18 18 17 17 16 16 16 16 15
30 29 27 24 24 23 20 20 19 18 18 17 16 15 15 15 15 14 14 14 14 14 15 15 15 16 17 18 18 18 18 19 19 18 17 17 17 18 18 17 17 16 15 15
30 29 27 25 24 22 22 20 19 19 19 18 18 17 16 15 15 15 15 15 15 16 16 16 16 15 16 18 19 18 18 19 19 18 18 17 17 17 18 17 17 16 16 16
30 29 28 27 26 24 24 22 21 20 20 19 18 17 17 16 16 16 16 16 17 17 17 17 17 17 17 18 18 19 19 19 19 19 18 18 17 17 17 17 17 17 17 17
30 29 29 28 26 25 25 24 23 22 21 20 19 18 18 17 16 16 16 16 16 17 17 17 18 18 18 18 19 20 19 19 20 20 19 19 18 18 18 18 18 18 18 18
29 29 29 28 27 26 25 25 24 23 22 21 20 20 19 18 18 17 17 17 17 17 18 18 19 19 19 19 19 19 19 20 20 20 19 19 19 19 19 19 19 19 19 18
29 29 29 29 28 28 26 25 24 24 23 22 21 21 20 19 18 18 17 17 17 17 18 18 19 19 19 19 18 18 18 19 20 20 20 19 19 19 19 19 18 18 19 19
29 29 29 29 28 28 27 26 25 24 23 22 22 21 20 20 19 18 18 17 17 18 18 18 18 19 19 18 18 18 18 18 18 19 19 19 19 18 19 19 19 19 19 20
30 29 29 29 28 28 28 27 26 25 24 23 23 22 21 20 20 20 19 18 18 19 18 18 17 18 19 18 18 18 18 17 17 18 18 18 18 18 18 19 19 20 20 20
31 29 29 29 29 29 28 28 27 26 25 25 24 23 22 21 21 20 19 18 18 19 19 19 18 18 19 19 19 19 18 18 18 18 18 18 18 19 19 20 20 20 20 20
31 30 29 29 29 29 29 28 27 27 26 26 25 24 23 22 21 20 20 19 20 20 19 19 19 20 20 20 20 20 19 20 19 19 19 19 19 19 19 20 20 20 20 21
31 31 30 29 29 29 28 28 28 27 27 26 25 25 24 24 23 22 21 21 21 21 21 20 20 20 20 21 21 20 20 21 20 20 20 19 19 19 20 21 21 21 21 22
31 30 30 29 29 29 28 28 28 28 27 27 26 25 25 25 25 24 23 22 22 22 22 22 21 20 20 21 21 21 21 21 21 21 20 20 20 21 21 22 22 22 23 24
31 30 29 29 29 29 29 29 29 29 28 28 27 27 26 25 25 25 24 23 23 23 23 23 23 23 22 22 22 22 22 22 21 22 22 22 22 22 22 23 23 23 24 24
30 29 29 29 29 30 30 30 29 29 28 28 28 28 27 27 27 26 26 25 25 25 25 24 24 24 23 24 24 23 23 23 23 23 23 23 23 23 24 24 24 24 25 25
30 30 30 30 30 30 30 30 30 29 29 29 29 29 28 28 27 27 27 27 27 26 26 25 25 25 25 25 25 25 25 25 24 24 24 24 24 25 25 25 25 26 27 27
30 30 30 30 30 30 31 30 30 30 29 29 29 29 29 28 28 28 28 28 27 27 27 27 27 27 26 26 26 26 26 26 25 25 25 25 25 25 26 26 26 27 28 29
29 30 30 31 31 31 31 30 30 30 30 30 30 30 30 29 29 29 29 29 28 28 28 28 28 28 28 27 27 27 28 27 27 27 26 26 27 27 27 28 28 29 30 31
30 30 30 31 31 31 31 31 30 30 31 31 31 30 30 30 29 29 29 29 29 29 29 28 28 28 28 28 28 28 28 28 28 27 27 28 28 28 29 29 30 30 31 32
31 30 30 31 31 31 31 30 30 29 30 30 30 30 30 29 29 29 29 29 29 29 29 29 29 28 28 27 27 28 28 28 29 29 30 30 30 30 30 31 31 31 32 33
30 30 30 30 31 32 31 31 31 30 29 29 29 28 29 29 28 28 28 28 28 28 29 29 29 28 28 28 28 28 29 29 30 30 30 31 31 31 32 32 33 33 33 34
Wind_Direction
238 239 240 242 244 247 251 251 249 244 247 252 255 253 253 256 256 251 244 241 238 232 228 226 222 221 219 218 217 217 218 217 214 213 211 212 214 216 220 223 226 228 232 237
238 237 238 241 243 246 248 248 247 246 246 249 253 252 251 254 256 251 244 238 236 229 225 223 219 218 219 217 217 218 218 215 214 213 211 214 215 219 223 224 228 233 236 239
237 237 239 240 242 244 247 247 248 248 247 247 250 253 253 255 256 246 240 234 231 229 222 219 219 218 220 216 216 217 218 216 215 216 216 219 222 225 226 228 233 236 239 243
237 238 240 242 241 242 244 245 245 245 246 245 247 250 251 253 252 245 241 235 231 225 218 219 221 222 219 216 217 220 222 218 217 218 220 223 226 231 231 234 238 240 243 247
236 238 239 239 239 240 241 242 243 243 244 244 247 248 248 252 246 242 242 236 230 226 223 222 222 222 218 216 218 221 224 222 220 220 223 226 230 234 237 239 242 243 245 249
235 237 238 238 239 239 239 240 241 242 242 242 243 243 247 246 242 240 237 234 231 228 227 224 222 221 219 218 220 222 224 224 223 224 226 230 232 236 240 244 245 245 246 250
233 236 236 236 236 237 238 238 238 239 239 239 238 239 242 242 240 238 236 234 231 227 226 226 225 225 225 225 226 227 226 226 226 226 229 231 234 237 242 246 248 248 248 251
233 233 234 234 235 235 236 237 237 236 237 238 238 239 241 242 239 236 235 235 231 228 228 230 230 231 229 227 228 229 229 228 226 226 230 234 237 240 242 246 246 245 248 251
233 233 233 234 234 233 234 235 235 235 237 238 239 240 242 241 238 237 237 235 233 231 230 232 233 234 231 229 231 231 230 228 227 229 233 237 238 240 242 243 244 247 250 252
232 232 233 233 232 232 232 233 234 235 235 236 237 240 241 241 239 238 238 236 235 234 233 232 232 232 232 231 229 231 230 227 227 230 234 237 238 239 240 243 244 246 250 253
233 233 231 231 231 231 231 232 233 233 234 235 237 239 241 242 241 239 237 237 237 237 236 235 233 231 231 232 233 234 231 229 229 231 237 239 242 244 244 245 247 249 251 254
233 232 230 229 230 231 230 230 231 234 235 236 237 240 242 242 242 241 240 239 239 237 237 236 234 233 231 232 234 233 231 230 231 233 238 241 244 244 244 247 249 250 252 253
232 231 229 228 228 229 229 230 231 233 234 235 237 239 241 241 241 243 241 240 238 238 239 236 232 230 229 231 233 232 233 233 234 236 238 242 242 242 244 246 248 251 253 254
229 228 227 226 227 228 228 230 231 231 232 234 235 237 239 240 240 241 240 239 238 237 237 234 232 231 231 232 232 232 233 235 237 237 239 242 242 243 244 247 250 252 253 255
227 228 227 226 226 226 226 229 231 231 232 234 236 237 238 238 238 239 238 239 238 236 235 233 233 232 231 231 231 232 233 235 237 238 240 242 243 244 246 249 251 253 255 258
226 227 228 227 227 226 227 229 230 231 232 233 235 237 237 236 237 237 239 238 239 237 236 236 237 237 234 232 234 235 236 236 237 239 241 243 244 246 248 250 253 255 257 260
225 228 229 228 227 227 227 228 229 231 232 232 233 235 235 234 235 237 240 240 239 237 238 239 239 240 239 239 240 239 239 239 239 241 244 248 249 249 251 254 256 258 259 262
226 227 228 227 226 226 226 227 228 229 230 229 231 233 233 232 234 238 241 243 241 239 239 241 241 240 242 243 241 240 242 242 243 245 249 253 255 256 257 258 260 263 265 267
225 226 226 226 225 225 225 226 226 228 228 229 230 232 233 234 235 237 241 243 243 241 240 240 241 241 242 243 242 243 245 247 247 249 251 254 256 258 260 260 262 265 268 270
223 223 223 224 224 224 224 225 226 228 228 229 230 232 234 237 239 239 240 242 243 242 241 241 242 244 244 243 244 245 246 248 252 254 254 255 257 259 260 262 266 269 271 274
221 222 223 224 222 222 223 224 226 227 228 230 231 234 236 238 240 242 242 242 243 243 243 244 244 245 246 245 245 246 247 250 253 255 255 257 259 260 262 265 269 272 276 278
221 221 222 220 220 222 223 224 225 227 230 232 234 235 237 239 240 242 243 243 243 242 243 244 245 246 247 247 247 248 250 252 254 255 257 259 261 263 265 267 270 273 276 278
222 222 221 220 221 222 223 224 226 228 231 234 235 236 237 238 240 242 244 245 244 243 243 245 246 247 247 248 249 250 250 252 253 255 257 259 262 265 268 270 272 274 277 279
222 223 222 221 222 223 224 226 227 229 231 234 235 237 239 240 240 241 243 244 245 245 246 246 246 247 248 249 250 251 252 254 255 257 258 260 262 265 269 272 275 277 279 280
224 225 224 223 223 224 225 226 228 230 233 235 236 238 240 240 240 240 241 243 245 245 245 245 246 247 249 250 251 252 254 255 256 258 260 262 264 267 270 273 275 278 280 281
224 225 226 225 224 225 226 228 229 231 234 236 238 239 239 239 240 241 242 243 244 244 244 245 246 247 249 251 252 254 255 256 257 259 261 264 266 268 271 274 276 278 280 281
223 225 226 226 225 226 228 230 231 233 235 236 237 238 238 238 240 242 243 244 245 245 246 247 248 249 251 252 254 256 257 259 260 261 263 266 269 271 273 275 277 279 281 283
Height
5802 5803 5805 5807 5809 5810 5811 5813 5814 5815 5816 5816 5816 5817 5817 5818 5818 5819 5820 5820 5821 5823 5825 5827 5829 5831 5834 5836 5839 5841 5844 5846 5848 5850 5852 5854 5856 5857 5859 5860 5862 5863 5864 5865
5796 5797 5799 5801 5803 5805 5807 5808 5810 5811 5812 5813 5813 5814 5814 5815 5816 5816 5817 5818 5819 5820 5822 5824 5826 5828 5831 5834 5836 5839 5841 5843 5846 5848 5850 5852 5854 5855 5857 5858 5860 5861 5862 5863
5790 5792 5793 5796 5799 5800 5802 5804 5806 5807 5810 5809 5809 5810 5811 5812 5812 5813 5814 5815 5816 5818 5819 5821 5824 5826 5828 5831 5834 5836 5839 5841 5843 5846 5848 5850 5852 5853 5854 5856 5857 5859 5860 5861
5783 5786 5788 5794 5794 5796 5797 5799 5801 5803 5804 5805 5806 5807 5808 5809 5809 5810 5811 5812 5813 5815 5817 5819 5821 5823 5826 5828 5831 5834 5836 5838 5841 5843 5845 5847 5849 5851 5852 5853 5855 5856 5857 5858
5777 5779 5783 5787 5789 5791 5793 5795 5796 5798 5800 5801 5802 5803 5804 5805 5806 5807 5808 5809 5811 5812 5814 5816 5818 5820 5823 5825 5828 5831 5833 5835 5838 5840 5842 5844 5846 5848 5849 5851 5852 5853 5854 5855
5771 5774 5777 5783 5784 5785 5788 5790 5792 5793 5795 5797 5798 5800 5801 5801 5803 5804 5805 5806 5808 5810 5812 5814 5816 5818 5820 5822 5825 5827 5829 5832 5834 5836 5839 5841 5842 5844 5846 5847 5848 5849 5850 5851
5764 5767 5771 5776 5778 5780 5784 5787 5787 5789 5791 5792 5794 5796 5797 5798 5799 5801 5802 5803 5805 5807 5809 5811 5813 5815 5817 5819 5821 5823 5825 5828 5830 5832 5834 5836 5838 5840 5842 5843 5844 5845 5846 5847
5757 5761 5767 5769 5772 5776 5779 5780 5782 5784 5786 5788 5790 5792 5793 5794 5796 5797 5799 5800 5802 5804 5806 5807 5809 5811 5813 5815 5817 5819 5821 5823 5826 5828 5830 5832 5834 5836 5837 5839 5840 5841 5842 5843
5752 5757 5760 5764 5767 5770 5772 5775 5777 5780 5782 5784 5786 5787 5789 5791 5792 5794 5795 5797 5798 5800 5802 5804 5805 5807 5809 5811 5813 5815 5817 5819 5822 5824 5826 5828 5829 5831 5833 5834 5835 5837 5838 5839
5744 5749 5753 5756 5759 5763 5766 5769 5772 5774 5777 5779 5781 5783 5785 5787 5788 5789 5791 5793 5794 5796 5798 5800 5801 5803 5805 5807 5809 5811 5813 5815 5817 5820 5822 5823 5825 5827 5828 5830 5831 5832 5833 5834
5737 5742 5745 5749 5753 5757 5760 5763 5766 5769 5771 5774 5776 5779 5781 5782 5784 5785 5787 5788 5790 5792 5793 5795 5797 5798 5800 5802 5804 5806 5808 5811 5813 5815 5817 5819 5820 5822 5824 5825 5826 5827 5828 5829
5730 5735 5739 5744 5747 5750 5754 5757 5760 5763 5766 5769 5771 5774 5776 5777 5779 5781 5782 5784 5785 5787 5789 5790 5792 5794 5796 5798 5800 5802 5804 5806 5808 5810 5812 5814 5815 5817 5818 5820 5821 5822 5823 5824
5723 5727 5731 5736 5740 5744 5747 5751 5754 5757 5760 5763 5766 5768 5770 5772 5774 5776 5777 5779 5781 5782 5784 5785 5787 5789 5791 5793 5795 5797 5799 5801 5803 5805 5807 5809 5810 5812 5813 5815 5816 5817 5818 5818
5715 5719 5724 5728 5733 5737 5741 5745 5748 5751 5755 5758 5760 5763 5765 5767 5769 5771 5773 5774 5776 5777 5779 5780 5782 5785 5786 5789 5791 5793 5795 5797 5798 5800 5802 5804 5805 5806 5808 5809 5810 5811 5812 5812
5708 5712 5717 5722 5726 5730 5734 5738 5742 5745 5749 5752 5755 5757 5760 5762 5764 5766 5768 5769 5771 5773 5774 5776 5778 5780 5782 5784 5786 5788 5790 5792 5794 5795 5797 5799 5800 5801 5802 5803 5804 5805 5805 5806
5701 5705 5710 5715 5719 5723 5728 5732 5736 5739 5743 5746 5749 5751 5754 5756 5758 5761 5763 5764 5766 5768 5770 5772 5774 5776 5778 5780 5781 5783 5785 5787 5789 5791 5792 5793 5794 5796 5796 5797 5798 5799 5799 5799
5694 5699 5703 5708 5712 5717 5721 5725 5729 5733 5736 5740 5743 5745 5748 5750 5753 5755 5757 5759 5761 5763 5765 5767 5769 5771 5773 5775 5777 5778 5780 5782 5784 5785 5787 5788 5789 5790 5791 5791 5792 5792 5792 5793
5687 5692 5696 5701 5705 5710 5714 5718 5722 5726 5730 5733 5736 5739 5742 5745 5748 5750 5752 5753 5755 5757 5759 5761 5764 5765 5767 5770 5771 5773 5775 5777 5778 5780 5781 5782 5783 5784 5785 5785 5786 5786 5786 5786
5679 5684 5689 5693 5698 5703 5707 5711 5715 5719 5723 5727 5730 5733 5736 5739 5741 5744 5746 5748 5749 5752 5754 5756 5758 5760 5762 5764 5766 5768 5769 5771 5772 5774 5775 5776 5777 5778 5778 5779 5779 5779 5779 5779
5672 5677 5682 5686 5691 5696 5700 5705 5709 5713 5716 5720 5723 5726 5730 5732 5735 5737 5739 5741 5743 5745 5747 5749 5752 5754 5756 5757 5759 5761 5763 5765 5766 5767 5768 5769 5770 5771 5771 5772 5772 5772 5772 5771
5666 5670 5675 5679 5684 5689 5693 5697 5701 5705 5709 5713 5716 5719 5723 5725 5728 5730 5732 5734 5737 5738 5741 5743 5745 5747 5749 5751 5753 5755 5756 5758 5759 5760 5761 5762 5763 5763 5764 5764 5764 5764 5764 5763
5659 5663 5668 5672 5677 5681 5686 5690 5694 5698 5702 5705 5708 5712 5715 5718 5720 5722 5725 5727 5729 5731 5734 5736 5738 5740 5742 5744 5745 5747 5749 5750 5752 5753 5754 5755 5755 5756 5756 5756 5756 5756 5755 5754
5652 5656 5661 5665 5670 5674 5678 5683 5687 5691 5694 5697 5701 5704 5706 5709 5712 5714 5717 5719 5721 5723 5726 5728 5731 5733 5734 5736 5738 5740 5741 5743 5744 5745 5746 5747 5747 5748 5748 5748 5748 5747 5746 5745
5645 5650 5654 5658 5662 5667 5671 5675 5679 5683 5686 5689 5692 5695 5698 5701 5703 5706 5708 5710 5713 5715 5717 5720 5722 5724 5727 5728 5730 5732 5733 5734 5736 5737 5738 5738 5739 5739 5739 5739 5738 5738 5737 5736
5639 5643 5647 5651 5655 5659 5664 5668 5671 5675 5678 5681 5684 5687 5690 5692 5695 5697 5699 5702 5704 5707 5709 5711 5713 5716 5718 5720 5721 5723 5724 5726 5727 5728 5729 5729 5730 5730 5730 5729 5729 5728 5727 5725
5631 5636 5640 5644 5648 5652 5656 5660 5664 5667 5670 5673 5676 5678 5681 5684 5686 5689 5691 5694 5696 5698 5700 5703 5705 5707 5709 5711 5712 5714 5715 5717 5718 5719 5719 5720 5720 5720 5720 5719 5719 5718 5717 5715
5624 5628 5632 5636 5640 5644 5648 5652 5656 5659 5662 5665 5668 5670 5673 5675 5678 5680 5683 5685 5687 5689 5691 5694 5696 5698 5700 5702 5703 5705 5706 5707 5708 5709 5710 5710 5710 5710 5710 5709 5708 5707 5706 5704